"read_dt","SO2 (ppb)","flags","PMT voltage (V)","lamp voltage (V)","lamp intensity (Hz)","internal temp (C)","react chamber temp (C)","sample flow (l/min)","pres (mmHg)","SO2 bkg (ppb)","SO2 coefficient"
2015-05-24 00:00:00,1737E-3,5C000000,-0724,0832,12020,026.7,045.4,0.478,739.1,01.18,0.508
2015-05-24 00:01:00,1819E-3,5C000000,-0724,0832,12140,026.6,045.4,0.479,739.1,01.18,0.508
2015-05-24 00:02:00,1686E-3,5C000000,-0724,0831,12185,026.5,045.4,0.478,739.1,01.18,0.508
2015-05-24 00:03:00,1883E-3,5C000000,-0724,0832,12025,026.4,045.4,0.479,739.1,01.18,0.508
2015-05-24 00:04:00,1877E-3,5C000000,-0724,0832,12164,026.3,045.4,0.479,739.1,01.18,0.508
2015-05-24 00:05:00,1764E-3,5C000000,-0724,0831,12217,026.2,045.4,0.479,739.1,01.18,0.508
2015-05-24 00:06:00,1650E-3,5C000000,-0724,0832,12365,026.2,045.4,0.479,739.1,01.18,0.508
2015-05-24 00:07:00,1680E-3,5C000000,-0724,0831,12303,026.1,045.4,0.479,739.1,01.18,0.508
2015-05-24 00:08:00,1692E-3,5C000000,-0724,0832,12048,026.1,045.4,0.480,739.1,01.18,0.508
2015-05-24 00:09:00,1747E-3,5C000000,-0724,0831,12295,026.1,045.4,0.479,739.0,01.18,0.508
2015-05-24 00:10:00,1787E-3,5C000000,-0724,0831,12197,026.0,045.4,0.479,739.0,01.18,0.508
2015-05-24 00:11:00,1697E-3,5C000000,-0724,0831,12130,026.0,045.4,0.480,739.0,01.18,0.508
2015-05-24 00:12:00,1735E-3,5C000000,-0724,0831,12083,025.9,045.4,0.479,739.0,01.18,0.508
2015-05-24 00:13:00,1918E-3,5C000000,-0724,0832,12227,025.9,045.4,0.479,739.1,01.18,0.508
2015-05-24 00:14:00,1722E-3,5C000000,-0724,0831,12167,025.9,045.4,0.480,739.0,01.18,0.508
2015-05-24 00:15:00,1761E-3,5C000000,-0724,0832,12336,025.8,045.4,0.480,739.0,01.18,0.508
2015-05-24 00:16:00,1704E-3,5C000000,-0724,0831,12256,025.8,045.4,0.479,739.1,01.18,0.508
2015-05-24 00:17:00,1650E-3,5C000000,-0724,0832,12124,025.8,045.4,0.480,739.0,01.18,0.508
2015-05-24 00:18:00,1806E-3,5C000000,-0724,0831,12345,025.8,045.4,0.480,739.0,01.18,0.508
2015-05-24 00:19:00,1744E-3,5C000000,-0724,0831,12116,025.8,045.4,0.480,739.0,01.18,0.508
2015-05-24 00:20:00,1714E-3,5C000000,-0724,0831,12168,025.8,045.4,0.480,739.1,01.18,0.508
2015-05-24 00:21:00,1731E-3,5C000000,-0724,0832,12256,025.8,045.4,0.480,739.0,01.18,0.508
2015-05-24 00:22:00,1674E-3,5C000000,-0724,0832,12177,026.0,045.4,0.480,739.0,01.18,0.508
2015-05-24 00:23:00,1636E-3,5C000000,-0724,0831,12105,026.1,045.4,0.480,739.0,01.18,0.508
2015-05-24 00:24:00,1778E-3,5C000000,-0724,0832,12135,026.2,045.4,0.480,739.0,01.18,0.508
2015-05-24 00:25:00,1730E-3,5C000000,-0724,0832,12172,026.3,045.4,0.479,739.0,01.18,0.508
2015-05-24 00:26:00,1751E-3,5C000000,-0724,0833,12097,026.4,045.4,0.479,739.0,01.18,0.508
2015-05-24 00:27:00,1823E-3,5C000000,-0724,0832,12244,026.5,045.4,0.479,739.0,01.18,0.508
2015-05-24 00:28:00,1701E-3,5C000000,-0724,0832,12147,026.6,045.4,0.479,739.0,01.18,0.508
2015-05-24 00:29:00,1846E-3,5C000000,-0724,0833,12193,026.6,045.4,0.479,739.0,01.18,0.508
2015-05-24 00:30:00,1890E-3,5C000000,-0724,0831,12113,026.7,045.4,0.479,739.0,01.18,0.508
2015-05-24 00:31:00,1624E-3,5C000000,-0724,0831,12181,026.7,045.4,0.479,739.0,01.18,0.508
2015-05-24 00:32:00,1748E-3,5C000000,-0724,0831,12104,026.7,045.4,0.479,739.0,01.18,0.508
2015-05-24 00:33:00,1759E-3,5C000000,-0724,0832,12183,026.7,045.4,0.479,739.0,01.18,0.508
2015-05-24 00:34:00,1727E-3,5C000000,-0724,0831,12326,026.7,045.4,0.478,739.1,01.18,0.508
2015-05-24 00:35:00,1772E-3,5C000000,-0724,0831,12294,026.7,045.4,0.478,739.1,01.18,0.508
2015-05-24 00:36:00,1701E-3,5C000000,-0724,0831,12094,026.6,045.4,0.478,739.1,01.18,0.508
2015-05-24 00:37:00,1712E-3,5C000000,-0724,0831,12055,026.5,045.4,0.479,739.1,01.18,0.508
2015-05-24 00:38:00,1734E-3,5C000000,-0724,0831,12104,026.4,045.4,0.478,739.1,01.18,0.508
2015-05-24 00:39:00,1803E-3,5C000000,-0724,0832,12088,026.3,045.4,0.479,739.1,01.18,0.508
2015-05-24 00:40:00,1708E-3,5C000000,-0724,0832,12084,026.3,045.4,0.479,739.1,01.18,0.508
2015-05-24 00:41:00,1735E-3,5C000000,-0724,0831,12348,026.2,045.4,0.479,739.1,01.18,0.508
2015-05-24 00:42:00,1782E-3,5C000000,-0724,0832,12233,026.2,045.4,0.479,739.0,01.18,0.508
2015-05-24 00:43:00,1696E-3,5C000000,-0724,0831,12004,026.1,045.4,0.479,739.0,01.18,0.508
2015-05-24 00:44:00,1719E-3,5C000000,-0724,0831,12206,026.1,045.4,0.479,739.0,01.18,0.508
2015-05-24 00:45:00,1829E-3,5C000000,-0724,0832,12053,026.0,045.4,0.479,739.0,01.18,0.508
2015-05-24 00:46:00,1720E-3,5C000000,-0724,0831,12162,025.9,045.4,0.480,739.0,01.18,0.508
2015-05-24 00:47:00,1749E-3,5C000000,-0724,0830,12188,025.9,045.4,0.479,739.0,01.18,0.508
2015-05-24 00:48:00,1729E-3,5C000000,-0724,0830,12210,025.9,045.4,0.479,739.0,01.18,0.508
2015-05-24 00:49:00,1807E-3,5C000000,-0724,0831,12208,025.9,045.4,0.480,739.0,01.18,0.508
2015-05-24 00:50:00,1871E-3,5C000000,-0724,0831,12126,025.8,045.4,0.480,739.0,01.18,0.508
2015-05-24 00:51:00,1730E-3,5C000000,-0724,0832,12245,025.8,045.4,0.479,739.0,01.18,0.508
2015-05-24 00:52:00,1819E-3,5C000000,-0724,0831,12197,025.8,045.4,0.479,739.0,01.18,0.508
2015-05-24 00:53:00,1651E-3,5C000000,-0724,0831,12276,025.8,045.4,0.480,739.0,01.18,0.508
2015-05-24 00:54:00,1791E-3,5C000000,-0724,0831,12177,025.8,045.4,0.480,739.0,01.18,0.508
2015-05-24 00:55:00,1609E-3,5C000000,-0724,0832,12320,025.7,045.4,0.480,739.0,01.18,0.508
2015-05-24 00:56:00,1690E-3,5C000000,-0724,0832,12182,025.7,045.4,0.479,739.0,01.18,0.508
2015-05-24 00:57:00,1722E-3,5C000000,-0724,0831,12095,025.7,045.4,0.480,739.0,01.18,0.508
2015-05-24 00:58:00,1773E-3,5C000000,-0724,0831,12209,025.7,045.4,0.480,739.0,01.18,0.508
2015-05-24 00:59:00,1821E-3,5C000000,-0724,0832,12326,025.7,045.4,0.480,738.9,01.18,0.508
2015-05-24 01:00:00,1766E-3,5C000000,-0724,0832,12232,025.7,045.4,0.480,739.0,01.18,0.508
2015-05-24 01:01:00,1737E-3,5C000000,-0724,0831,12126,025.7,045.4,0.479,739.0,01.18,0.508
2015-05-24 01:02:00,1733E-3,5C000000,-0724,0831,11975,025.7,045.4,0.480,739.0,01.18,0.508
2015-05-24 01:03:00,1694E-3,5C000000,-0724,0832,12159,025.7,045.4,0.480,739.0,01.18,0.508
2015-05-24 01:04:00,1824E-3,5C000000,-0724,0833,12343,025.7,045.4,0.480,739.0,01.18,0.508
2015-05-24 01:05:00,1899E-3,5C000000,-0724,0831,12262,025.7,045.4,0.480,739.0,01.18,0.508
2015-05-24 01:06:00,1713E-3,5C000000,-0724,0831,12246,025.7,045.4,0.480,739.0,01.18,0.508
2015-05-24 01:07:00,1803E-3,5C000000,-0724,0831,12284,025.6,045.4,0.480,739.0,01.18,0.508
2015-05-24 01:08:00,1754E-3,5C000000,-0724,0832,12060,025.6,045.4,0.480,739.0,01.18,0.508
2015-05-24 01:09:00,1814E-3,5C000000,-0724,0831,12257,025.6,045.4,0.480,738.9,01.18,0.508
2015-05-24 01:10:00,1821E-3,5C000000,-0724,0831,12274,025.6,045.4,0.480,738.9,01.18,0.508
2015-05-24 01:11:00,1801E-3,5C000000,-0724,0831,12271,025.6,045.4,0.480,738.9,01.18,0.508
2015-05-24 01:12:00,1850E-3,5C000000,-0724,0832,12107,025.6,045.4,0.479,738.9,01.18,0.508
2015-05-24 01:13:00,1700E-3,5C000000,-0724,0831,12257,025.6,045.4,0.480,738.9,01.18,0.508
2015-05-24 01:14:00,1657E-3,5C000000,-0724,0831,12229,025.6,045.4,0.480,738.9,01.18,0.508
2015-05-24 01:15:00,1828E-3,5C000000,-0724,0832,12219,025.6,045.4,0.480,738.9,01.18,0.508
2015-05-24 01:16:00,1839E-3,5C000000,-0724,0831,12113,025.6,045.4,0.480,738.9,01.18,0.508
2015-05-24 01:17:00,1851E-3,5C000000,-0724,0831,12022,025.5,045.4,0.480,738.9,01.18,0.508
2015-05-24 01:18:00,1697E-3,5C000000,-0724,0832,12112,025.6,045.4,0.480,738.9,01.18,0.508
2015-05-24 01:19:00,1752E-3,5C000000,-0724,0830,12203,025.6,045.4,0.480,738.9,01.18,0.508
2015-05-24 01:20:00,1659E-3,5C000000,-0724,0831,12240,025.6,045.4,0.480,738.9,01.18,0.508
2015-05-24 01:21:00,1680E-3,5C000000,-0724,0831,12259,025.6,045.4,0.480,738.9,01.18,0.508
2015-05-24 01:22:00,1860E-3,5C000000,-0724,0832,12100,025.6,045.4,0.480,738.9,01.18,0.508
2015-05-24 01:23:00,1661E-3,5C000000,-0724,0831,12121,025.6,045.4,0.480,738.9,01.18,0.508
2015-05-24 01:24:00,1750E-3,5C000000,-0724,0831,12193,025.6,045.4,0.480,738.9,01.18,0.508
2015-05-24 01:25:00,1666E-3,5C000000,-0724,0831,12197,025.6,045.4,0.480,738.9,01.18,0.508
2015-05-24 01:26:00,1786E-3,5C000000,-0724,0831,12299,025.6,045.4,0.480,738.9,01.18,0.508
2015-05-24 01:27:00,1781E-3,5C000000,-0724,0831,12131,025.5,045.4,0.480,738.9,01.18,0.508
2015-05-24 01:28:00,1763E-3,5C000000,-0724,0831,12171,025.5,045.4,0.480,738.9,01.18,0.508
2015-05-24 01:29:00,1783E-3,5C000000,-0724,0831,12196,025.6,045.4,0.480,739.0,01.18,0.508
2015-05-24 01:30:00,1780E-3,5C000000,-0724,0831,12139,025.5,045.4,0.480,738.9,01.18,0.508
2015-05-24 01:31:00,1723E-3,5C000000,-0724,0832,12077,025.5,045.4,0.480,739.0,01.18,0.508
2015-05-24 01:32:00,1715E-3,5C000000,-0724,0832,12157,025.5,045.4,0.480,738.9,01.18,0.508
2015-05-24 01:33:00,1786E-3,5C000000,-0724,0832,12160,025.5,045.4,0.480,738.9,01.18,0.508
2015-05-24 01:34:00,1683E-3,5C000000,-0724,0833,12023,025.5,045.4,0.480,738.9,01.18,0.508
2015-05-24 01:35:00,1744E-3,5C000000,-0724,0831,12329,025.5,045.4,0.480,739.0,01.18,0.508
2015-05-24 01:36:00,1872E-3,5C000000,-0724,0832,12198,025.5,045.4,0.480,739.0,01.18,0.508
2015-05-24 01:37:00,1765E-3,5C000000,-0724,0830,12299,025.5,045.4,0.480,739.0,01.18,0.508
2015-05-24 01:38:00,1731E-3,5C000000,-0724,0830,12136,025.5,045.4,0.480,739.0,01.18,0.508
2015-05-24 01:39:00,1722E-3,5C000000,-0724,0830,12203,025.5,045.4,0.480,739.0,01.18,0.508
2015-05-24 01:40:00,1673E-3,5C000000,-0724,0832,12193,025.5,045.4,0.480,739.0,01.18,0.508
2015-05-24 01:41:00,1718E-3,5C000000,-0724,0831,12222,025.5,045.4,0.480,738.9,01.18,0.508
2015-05-24 01:42:00,1705E-3,5C000000,-0724,0830,12202,025.5,045.4,0.480,739.0,01.18,0.508
2015-05-24 01:43:00,1671E-3,5C000000,-0724,0830,12152,025.5,045.4,0.480,738.9,01.18,0.508
2015-05-24 01:44:00,1780E-3,5C000000,-0724,0830,12103,025.5,045.4,0.480,739.0,01.18,0.508
2015-05-24 01:45:00,1688E-3,5C000000,-0724,0831,12094,025.5,045.4,0.480,739.0,01.18,0.508
2015-05-24 01:46:00,1705E-3,5C000000,-0724,0830,12176,025.5,045.4,0.480,739.0,01.18,0.508
2015-05-24 01:47:00,1817E-3,5C000000,-0724,0830,12221,025.5,045.4,0.480,739.0,01.18,0.508
2015-05-24 01:48:00,1804E-3,5C000000,-0724,0830,12206,025.5,045.4,0.480,739.0,01.18,0.508
2015-05-24 01:49:00,1738E-3,5C000000,-0724,0831,12230,025.5,045.4,0.480,739.0,01.18,0.508
2015-05-24 01:50:00,1688E-3,5C000000,-0724,0831,11907,025.5,045.4,0.480,739.0,01.18,0.508
2015-05-24 01:51:00,1775E-3,5C000000,-0724,0830,12371,025.5,045.4,0.480,739.0,01.18,0.508
2015-05-24 01:52:00,1605E-3,5C000000,-0724,0830,12057,025.5,045.4,0.480,738.9,01.18,0.508
2015-05-24 01:53:00,1725E-3,5C000000,-0724,0830,12068,025.5,045.4,0.480,738.9,01.18,0.508
2015-05-24 01:54:00,1834E-3,5C000000,-0724,0831,12396,025.5,045.4,0.480,739.0,01.18,0.508
2015-05-24 01:55:00,1819E-3,5C000000,-0724,0829,12273,025.5,045.4,0.480,738.9,01.18,0.508
2015-05-24 01:56:00,1823E-3,5C000000,-0724,0830,12270,025.5,045.4,0.480,739.0,01.18,0.508
2015-05-24 01:57:00,1776E-3,5C000000,-0724,0830,12143,025.5,045.4,0.480,738.9,01.18,0.508
2015-05-24 01:58:00,1729E-3,5C000000,-0724,0830,12239,025.5,045.4,0.480,739.0,01.18,0.508
2015-05-24 01:59:00,1778E-3,5C000000,-0724,0830,12271,025.5,045.4,0.480,738.9,01.18,0.508
2015-05-24 02:00:00,1865E-3,5C000000,-0724,0830,12106,025.5,045.4,0.480,739.0,01.18,0.508
2015-05-24 02:01:00,1727E-3,5C000000,-0724,0830,12062,025.5,045.4,0.480,738.9,01.18,0.508
2015-05-24 02:02:00,1607E-3,5C000000,-0724,0830,12108,025.6,045.4,0.480,738.9,01.18,0.508
2015-05-24 02:03:00,1728E-3,5C000000,-0724,0830,12258,025.6,045.4,0.480,738.9,01.18,0.508
2015-05-24 02:04:00,1733E-3,5C000000,-0724,0829,12175,025.6,045.4,0.480,739.0,01.18,0.508
2015-05-24 02:05:00,1721E-3,5C000000,-0724,0830,12093,025.6,045.4,0.480,739.0,01.18,0.508
2015-05-24 02:06:00,1762E-3,5C000000,-0724,0829,12221,025.5,045.4,0.480,739.0,01.18,0.508
2015-05-24 02:07:00,1660E-3,5C000000,-0724,0829,12188,025.5,045.4,0.480,739.0,01.18,0.508
2015-05-24 02:08:00,1694E-3,5C000000,-0724,0830,12178,025.5,045.4,0.480,739.0,01.18,0.508
2015-05-24 02:09:00,1759E-3,5C000000,-0724,0831,12221,025.5,045.4,0.480,739.0,01.18,0.508
2015-05-24 02:10:00,1672E-3,5C000000,-0724,0830,12137,025.5,045.4,0.480,739.0,01.18,0.508
2015-05-24 02:11:00,1759E-3,5C000000,-0724,0830,12233,025.5,045.4,0.480,739.0,01.18,0.508
2015-05-24 02:12:00,1851E-3,5C000000,-0724,0830,12179,025.6,045.4,0.480,739.0,01.18,0.508
2015-05-24 02:13:00,1706E-3,5C000000,-0724,0830,12134,025.6,045.4,0.480,739.0,01.18,0.508
2015-05-24 02:14:00,1568E-3,5C000000,-0724,0830,12159,025.6,045.4,0.480,739.0,01.18,0.508
2015-05-24 02:15:00,1792E-3,5C000000,-0724,0831,12249,025.6,045.4,0.480,739.0,01.18,0.508
2015-05-24 02:16:00,1780E-3,5C000000,-0724,0829,12100,025.5,045.4,0.480,739.0,01.18,0.508
2015-05-24 02:17:00,1764E-3,5C000000,-0724,0830,12115,025.6,045.4,0.480,739.0,01.18,0.508
2015-05-24 02:18:00,1801E-3,5C000000,-0724,0831,12264,025.6,045.4,0.480,739.0,01.18,0.508
2015-05-24 02:19:00,1663E-3,5C000000,-0724,0831,12188,025.6,045.4,0.480,739.0,01.18,0.508
2015-05-24 02:20:00,1818E-3,5C000000,-0724,0830,12199,025.6,045.4,0.480,739.0,01.18,0.508
2015-05-24 02:21:00,1618E-3,5C000000,-0724,0831,12253,025.6,045.4,0.480,739.0,01.18,0.508
2015-05-24 02:22:00,1763E-3,5C000000,-0724,0830,12283,025.6,045.4,0.480,739.0,01.18,0.508
2015-05-24 02:23:00,1626E-3,5C000000,-0724,0830,12133,025.6,045.4,0.480,739.0,01.18,0.508
2015-05-24 02:24:00,1858E-3,5C000000,-0724,0831,12244,025.6,045.4,0.480,738.9,01.18,0.508
2015-05-24 02:25:00,1751E-3,5C000000,-0724,0830,12209,025.6,045.4,0.480,738.9,01.18,0.508
2015-05-24 02:26:00,1842E-3,5C000000,-0724,0831,12501,025.6,045.4,0.480,738.9,01.18,0.508
2015-05-24 02:27:00,1778E-3,5C000000,-0724,0831,12227,025.6,045.4,0.480,738.9,01.18,0.508
2015-05-24 02:28:00,1817E-3,5C000000,-0724,0830,12241,025.6,045.4,0.480,738.9,01.18,0.508
2015-05-24 02:29:00,1911E-3,5C000000,-0724,0830,12216,025.6,045.4,0.480,738.9,01.18,0.508
2015-05-24 02:30:00,1783E-3,5C000000,-0724,0829,12160,025.6,045.4,0.480,738.9,01.18,0.508
2015-05-24 02:31:00,1658E-3,5C000000,-0724,0829,12140,025.6,045.4,0.480,738.9,01.18,0.508
2015-05-24 02:32:00,1655E-3,5C000000,-0724,0830,11943,025.6,045.4,0.480,738.9,01.18,0.508
2015-05-24 02:33:00,1877E-3,5C000000,-0724,0831,12257,025.6,045.4,0.480,738.9,01.18,0.508
2015-05-24 02:34:00,1700E-3,5C000000,-0724,0830,12196,025.6,045.4,0.480,738.9,01.18,0.508
2015-05-24 02:35:00,1628E-3,5C000000,-0724,0831,12123,025.6,045.4,0.480,738.9,01.18,0.508
2015-05-24 02:36:00,1688E-3,5C000000,-0724,0830,12093,025.6,045.4,0.480,738.9,01.18,0.508
2015-05-24 02:37:00,1696E-3,5C000000,-0724,0829,12273,025.6,045.4,0.480,738.9,01.18,0.508
2015-05-24 02:38:00,1741E-3,5C000000,-0724,0831,12110,025.6,045.4,0.480,738.9,01.18,0.508
2015-05-24 02:39:00,1731E-3,5C000000,-0724,0830,12199,025.6,045.4,0.480,738.9,01.18,0.508
2015-05-24 02:40:00,1688E-3,5C000000,-0724,0831,12229,025.6,045.4,0.480,738.9,01.18,0.508
2015-05-24 02:41:00,1764E-3,5C000000,-0724,0830,12231,025.6,045.4,0.480,738.9,01.18,0.508
2015-05-24 02:42:00,1700E-3,5C000000,-0724,0831,12090,025.6,045.4,0.480,738.9,01.18,0.508
2015-05-24 02:43:00,1812E-3,5C000000,-0724,0830,12210,025.6,045.4,0.480,738.9,01.18,0.508
2015-05-24 02:44:00,1749E-3,5C000000,-0724,0831,12157,025.6,045.4,0.480,738.9,01.18,0.508
2015-05-24 02:45:00,1938E-3,5C000000,-0724,0830,12223,025.6,045.4,0.480,738.9,01.18,0.508
2015-05-24 02:46:00,1646E-3,5C000000,-0724,0831,12250,025.6,045.4,0.480,738.9,01.18,0.508
2015-05-24 02:47:00,1741E-3,5C000000,-0724,0830,12181,025.6,045.4,0.480,738.9,01.18,0.508
2015-05-24 02:48:00,1687E-3,5C000000,-0724,0830,12131,025.6,045.4,0.480,738.9,01.18,0.508
2015-05-24 02:49:00,1700E-3,5C000000,-0724,0830,12062,025.6,045.4,0.480,738.9,01.18,0.508
2015-05-24 02:50:00,1650E-3,5C000000,-0724,0830,12226,025.6,045.4,0.480,738.9,01.18,0.508
2015-05-24 02:51:00,1895E-3,5C000000,-0724,0831,12161,025.6,045.4,0.480,738.9,01.18,0.508
2015-05-24 02:52:00,1667E-3,5C000000,-0724,0830,12255,025.6,045.4,0.480,738.8,01.18,0.508
2015-05-24 02:53:00,1693E-3,5C000000,-0724,0831,12252,025.6,045.4,0.480,738.8,01.18,0.508
2015-05-24 02:54:00,1690E-3,5C000000,-0724,0830,12187,025.6,045.4,0.480,738.8,01.18,0.508
2015-05-24 02:55:00,1788E-3,5C000000,-0724,0830,12196,025.6,045.4,0.480,738.8,01.18,0.508
2015-05-24 02:56:00,1806E-3,5C000000,-0724,0830,12117,025.6,045.4,0.480,738.9,01.18,0.508
2015-05-24 02:57:00,1815E-3,5C000000,-0724,0830,12122,025.6,045.4,0.480,738.8,01.18,0.508
2015-05-24 02:58:00,1721E-3,5C000000,-0724,0830,12114,025.6,045.4,0.480,738.8,01.18,0.508
2015-05-24 02:59:00,1745E-3,5C000000,-0724,0830,12195,025.6,045.4,0.480,738.8,01.18,0.508
2015-05-24 03:00:00,1729E-3,5C000000,-0724,0830,12161,025.6,045.4,0.480,738.9,01.18,0.508
2015-05-24 03:01:00,1829E-3,5C000000,-0724,0830,12150,025.6,045.4,0.480,738.9,01.18,0.508
2015-05-24 03:02:00,1675E-3,5C000000,-0724,0831,12236,025.6,045.4,0.480,738.9,01.18,0.508
2015-05-24 03:03:00,1665E-3,5C000000,-0724,0830,12215,025.6,045.4,0.480,738.9,01.18,0.508
2015-05-24 03:04:00,1802E-3,5C000000,-0724,0830,12284,025.6,045.4,0.480,738.9,01.18,0.508
2015-05-24 03:05:00,1832E-3,5C000000,-0724,0831,12099,025.6,045.4,0.480,738.9,01.18,0.508
2015-05-24 03:06:00,1739E-3,5C000000,-0724,0830,12238,025.6,045.4,0.480,738.9,01.18,0.508
2015-05-24 03:07:00,1738E-3,5C000000,-0724,0830,12203,025.6,045.4,0.480,738.9,01.18,0.508
2015-05-24 03:08:00,1677E-3,5C000000,-0724,0831,12284,025.6,045.4,0.480,738.9,01.18,0.508
2015-05-24 03:09:00,1739E-3,5C000000,-0724,0831,12094,025.6,045.4,0.480,738.9,01.18,0.508
2015-05-24 03:10:00,1696E-3,5C000000,-0724,0831,12064,025.6,045.4,0.480,738.9,01.18,0.508
2015-05-24 03:11:00,1728E-3,5C000000,-0724,0830,12173,025.6,045.4,0.480,738.9,01.18,0.508
2015-05-24 03:12:00,1829E-3,5C000000,-0724,0830,12115,025.6,045.4,0.480,738.9,01.18,0.508
2015-05-24 03:13:00,1734E-3,5C000000,-0724,0830,12206,025.6,045.4,0.480,738.9,01.18,0.508
2015-05-24 03:14:00,1744E-3,5C000000,-0724,0831,12092,025.6,045.4,0.480,738.9,01.18,0.508
2015-05-24 03:15:00,1597E-3,5C000000,-0724,0830,12085,025.6,045.4,0.480,738.9,01.18,0.508
2015-05-24 03:16:00,1699E-3,5C000000,-0724,0830,12193,025.6,045.4,0.480,738.9,01.18,0.508
2015-05-24 03:17:00,1757E-3,5C000000,-0724,0830,12217,025.6,045.4,0.480,738.9,01.18,0.508
2015-05-24 03:18:00,1780E-3,5C000000,-0724,0830,12280,025.6,045.4,0.480,738.9,01.18,0.508
2015-05-24 03:19:00,1646E-3,5C000000,-0724,0831,12116,025.6,045.4,0.480,738.9,01.18,0.508
2015-05-24 03:20:00,1797E-3,5C000000,-0724,0830,12181,025.6,045.4,0.480,738.9,01.18,0.508
2015-05-24 03:21:00,1674E-3,5C000000,-0724,0832,12256,025.6,045.4,0.480,738.9,01.18,0.508
2015-05-24 03:22:00,1674E-3,5C000000,-0724,0830,12247,025.6,045.4,0.480,738.9,01.18,0.508
2015-05-24 03:23:00,1698E-3,5C000000,-0724,0830,12177,025.6,045.4,0.480,738.9,01.18,0.508
2015-05-24 03:24:00,1763E-3,5C000000,-0724,0829,12165,025.6,045.4,0.480,738.8,01.18,0.508
2015-05-24 03:25:00,1636E-3,5C000000,-0724,0830,12242,025.6,045.4,0.480,738.9,01.18,0.508
2015-05-24 03:26:00,1667E-3,5C000000,-0724,0830,12142,025.7,045.4,0.480,738.9,01.18,0.508
2015-05-24 03:27:00,1814E-3,5C000000,-0724,0831,12021,025.6,045.4,0.480,738.9,01.18,0.508
2015-05-24 03:28:00,1714E-3,5C000000,-0724,0830,12286,025.7,045.4,0.480,738.9,01.18,0.508
2015-05-24 03:29:00,1779E-3,5C000000,-0724,0831,12188,025.7,045.4,0.480,738.9,01.18,0.508
2015-05-24 03:30:00,1694E-3,5C000000,-0724,0830,12140,025.6,045.4,0.480,738.9,01.18,0.508
2015-05-24 03:31:00,1817E-3,5C000000,-0724,0830,12252,025.6,045.4,0.480,738.9,01.18,0.508
2015-05-24 03:32:00,1662E-3,5C000000,-0724,0830,12161,025.6,045.4,0.480,738.9,01.18,0.508
2015-05-24 03:33:00,1812E-3,5C000000,-0724,0830,12127,025.6,045.4,0.480,738.9,01.18,0.508
2015-05-24 03:34:00,1827E-3,5C000000,-0724,0830,12180,025.7,045.4,0.480,738.9,01.18,0.508
2015-05-24 03:35:00,1731E-3,5C000000,-0724,0831,12266,025.6,045.4,0.480,738.9,01.18,0.508
2015-05-24 03:36:00,1671E-3,5C000000,-0724,0830,12192,025.7,045.4,0.479,738.9,01.18,0.508
2015-05-24 03:37:00,1810E-3,5C000000,-0724,0830,12216,025.7,045.4,0.480,738.9,01.18,0.508
2015-05-24 03:38:00,1772E-3,5C000000,-0724,0831,12074,025.7,045.4,0.480,738.9,01.18,0.508
2015-05-24 03:39:00,1727E-3,5C000000,-0724,0832,12289,025.7,045.4,0.480,738.9,01.18,0.508
2015-05-24 03:40:00,1701E-3,5C000000,-0724,0830,12155,025.7,045.4,0.480,738.9,01.18,0.508
2015-05-24 03:41:00,1837E-3,5C000000,-0724,0831,12249,025.7,045.4,0.480,738.9,01.18,0.508
2015-05-24 03:42:00,1684E-3,5C000000,-0724,0831,12130,025.6,045.4,0.480,738.9,01.18,0.508
2015-05-24 03:43:00,1650E-3,5C000000,-0724,0830,12143,025.7,045.4,0.480,738.9,01.18,0.508
2015-05-24 03:44:00,1692E-3,5C000000,-0724,0832,12160,025.6,045.4,0.480,738.9,01.18,0.508
2015-05-24 03:45:00,1718E-3,5C000000,-0724,0831,12282,025.7,045.4,0.480,738.9,01.18,0.508
2015-05-24 03:46:00,1668E-3,5C000000,-0724,0830,12196,025.7,045.4,0.480,738.9,01.18,0.508
2015-05-24 03:47:00,1737E-3,5C000000,-0724,0831,12188,025.7,045.4,0.480,738.9,01.18,0.508
2015-05-24 03:48:00,1689E-3,5C000000,-0724,0831,12209,025.7,045.4,0.480,738.9,01.18,0.508
2015-05-24 03:49:00,1773E-3,5C000000,-0724,0831,12192,025.7,045.4,0.480,738.9,01.18,0.508
2015-05-24 03:50:00,1749E-3,5C000000,-0724,0830,11965,025.7,045.4,0.480,738.9,01.18,0.508
2015-05-24 03:51:00,1676E-3,5C000000,-0724,0831,12240,025.7,045.4,0.480,738.9,01.18,0.508
2015-05-24 03:52:00,1774E-3,5C000000,-0724,0830,12054,025.7,045.4,0.480,738.9,01.18,0.508
2015-05-24 03:53:00,1888E-3,5C000000,-0724,0829,12169,025.7,045.4,0.480,738.9,01.18,0.508
2015-05-24 03:54:00,1687E-3,5C000000,-0724,0831,12340,025.7,045.4,0.480,738.9,01.18,0.508
2015-05-24 03:55:00,1793E-3,5C000000,-0724,0830,12268,025.7,045.4,0.480,738.9,01.18,0.508
2015-05-24 03:56:00,1725E-3,5C000000,-0724,0831,12297,025.7,045.4,0.479,738.9,01.18,0.508
2015-05-24 03:57:00,1618E-3,5C000000,-0724,0830,12200,025.7,045.4,0.480,738.9,01.18,0.508
2015-05-24 03:58:00,1643E-3,5C000000,-0724,0830,12227,025.7,045.4,0.480,738.9,01.18,0.508
2015-05-24 03:59:00,1733E-3,5C000000,-0724,0831,12204,025.7,045.4,0.480,738.9,01.18,0.508
2015-05-24 04:00:00,1746E-3,5C000000,-0724,0830,12177,025.7,045.4,0.480,738.9,01.18,0.508
2015-05-24 04:01:00,1705E-3,5C000000,-0724,0831,12182,025.7,045.4,0.480,738.9,01.18,0.508
2015-05-24 04:02:00,1764E-3,5C000000,-0724,0831,12132,025.8,045.4,0.480,738.9,01.18,0.508
2015-05-24 04:03:00,1701E-3,5C000000,-0724,0830,12147,025.7,045.4,0.479,738.9,01.18,0.508
2015-05-24 04:04:00,1686E-3,5C000000,-0724,0831,12190,025.7,045.4,0.480,738.9,01.18,0.508
2015-05-24 04:05:00,1720E-3,5C000000,-0724,0831,12180,025.7,045.4,0.480,738.9,01.18,0.508
2015-05-24 04:06:00,1694E-3,5C000000,-0724,0830,12252,025.8,045.4,0.480,738.9,01.18,0.508
2015-05-24 04:07:00,1821E-3,5C000000,-0724,0830,12102,025.8,045.4,0.480,738.9,01.18,0.508
2015-05-24 04:08:00,1718E-3,5C000000,-0724,0830,12203,025.7,045.4,0.480,738.9,01.18,0.508
2015-05-24 04:09:00,1882E-3,5C000000,-0724,0831,12136,025.7,045.4,0.479,738.9,01.18,0.508
2015-05-24 04:10:00,1820E-3,5C000000,-0724,0830,12068,025.7,045.4,0.479,738.9,01.18,0.508
2015-05-24 04:11:00,1711E-3,5C000000,-0724,0830,12328,025.7,045.4,0.480,738.9,01.18,0.508
2015-05-24 04:12:00,1691E-3,5C000000,-0724,0831,12178,025.8,045.4,0.480,738.9,01.18,0.508
2015-05-24 04:13:00,1813E-3,5C000000,-0724,0831,12272,025.7,045.4,0.480,738.9,01.18,0.508
2015-05-24 04:14:00,1686E-3,5C000000,-0724,0831,12242,025.7,045.4,0.480,738.9,01.18,0.508
2015-05-24 04:15:00,1723E-3,5C000000,-0724,0831,12179,025.7,045.4,0.479,738.9,01.18,0.508
2015-05-24 04:16:00,1705E-3,5C000000,-0724,0831,12045,025.8,045.4,0.479,738.9,01.18,0.508
2015-05-24 04:17:00,1784E-3,5C000000,-0724,0831,12094,025.7,045.4,0.480,738.9,01.18,0.508
2015-05-24 04:18:00,1742E-3,5C000000,-0724,0831,12208,025.8,045.4,0.480,738.9,01.18,0.508
2015-05-24 04:19:00,1801E-3,5C000000,-0724,0830,12281,025.8,045.4,0.480,738.9,01.18,0.508
2015-05-24 04:20:00,1751E-3,5C000000,-0724,0831,12020,025.8,045.4,0.480,738.9,01.18,0.508